Strona główna
METAR-TAF:

METAR-TAF

Lotnisko :

Port lotniczy Lábrea

Lábrea, Amazonas, Brazylia

Szerokość geograficzna: 07-15-01S, Długość geograficzna: 064-47-02W, wysokość: 58 m

Aktualna obserwacja pogody

Raport powstał 10 godziny i 13 minut temu, godzina 09:00 UTC
Wiatr 18 kt od północno-północny wschód
Temperatura 27°C
Wilgotność 74%
Ciśnienie 1014 hPa
Widzialność 10 km lub więcej

METAR: SBLB 250900Z AUTO 03018KT 9999 NCD 27/22 Q1014 W28/S4

czas: 15:13 (19:13 UTC)


TAF: brakujący

Obserwacja i prognoza pogody dla ponad 4000 lotnisk (raport METAR i TAF).

Dostępne stacje oznaczono żółtymi i czerwonymi punktami na mapie.

Najedź kursorem aby zobaczyć nazwę stacji.

Kliknij aby zobaczyć obserwacje i prognozy pogody.

Aby zmienić mapę: kliknij na zielony przycisk z czarnym krzyżykiem, aby powiększyć; na zielony przycisk z myślnikiem, aby pomniejszyć; na zielone strzałki, aby przejść do map sąsiednich.


METAR-TAF: